TimeCST,TemperatureF,Dew PointF,Humidity,Sea Level PressureIn,VisibilityMPH,Wind Direction,Wind SpeedMPH,Gust SpeedMPH,PrecipitationIn,Events,Conditions,WindDirDegrees,DateUTC
12:15 AM,25.7,16.7,69,30.17,10.0,NW,6.9,-,N/A,,Overcast,320,2013-11-19 06:15:00
12:35 AM,25.5,16.7,69,30.18,10.0,WNW,4.6,-,N/A,,Overcast,300,2013-11-19 06:35:00
12:55 AM,25.5,16.7,69,30.18,10.0,NW,6.9,-,N/A,,Overcast,320,2013-11-19 06:55:00
1:15 AM,25.2,16.7,70,30.19,10.0,WNW,4.6,-,N/A,,Overcast,300,2013-11-19 07:15:00
1:35 AM,25.2,16.7,70,30.19,10.0,NW,5.8,-,N/A,,Overcast,320,2013-11-19 07:35:00
1:55 AM,25.2,16.9,71,30.20,10.0,NNW,6.9,10.4,N/A,,Overcast,340,2013-11-19 07:55:00
2:15 AM,24.8,16.7,71,30.20,10.0,NNW,8.1,-,N/A,,Overcast,340,2013-11-19 08:15:00
2:35 AM,24.6,16.7,72,30.21,10.0,NW,3.5,-,N/A,,Overcast,310,2013-11-19 08:35:00
2:55 AM,23.9,16.9,75,30.20,10.0,NNW,3.5,-,N/A,,Mostly Cloudy,330,2013-11-19 08:55:00
3:15 AM,22.8,17.8,81,30.20,10.0,Calm,Calm,-,N/A,,Scattered Clouds,0,2013-11-19 09:15:00
3:35 AM,20.7,17.1,86,30.21,10.0,Calm,Calm,-,N/A,,Scattered Clouds,0,2013-11-19 09:35:00
3:55 AM,19.0,16.3,89,30.22,10.0,Calm,Calm,-,N/A,,Scattered Clouds,0,2013-11-19 09:55:00
4:15 AM,17.1,15.1,92,30.23,10.0,Calm,Calm,-,N/A,,Clear,0,2013-11-19 10:15:00
4:35 AM,16.7,14.9,93,30.23,10.0,Calm,Calm,-,N/A,,Clear,0,2013-11-19 10:35:00
4:55 AM,16.0,14.2,93,30.23,10.0,Calm,Calm,-,N/A,,Clear,0,2013-11-19 10:55:00
5:15 AM,14.5,12.7,93,30.24,10.0,Calm,Calm,-,N/A,,Scattered Clouds,0,2013-11-19 11:15:00
5:35 AM,14.4,12.4,92,30.24,10.0,Calm,Calm,-,N/A,,Scattered Clouds,0,2013-11-19 11:35:00
5:55 AM,13.8,12.0,93,30.25,10.0,Calm,Calm,-,N/A,,Clear,0,2013-11-19 11:55:00
6:15 AM,12.9,10.8,91,30.25,10.0,Calm,Calm,-,N/A,,Clear,0,2013-11-19 12:15:00
6:35 AM,12.9,11.1,93,30.25,10.0,Calm,Calm,-,N/A,,Clear,0,2013-11-19 12:35:00
6:55 AM,12.0,9.1,88,30.25,10.0,Calm,Calm,-,N/A,,Clear,0,2013-11-19 12:55:00
7:15 AM,12.7,10.9,92,30.25,10.0,Calm,Calm,-,N/A,,Clear,0,2013-11-19 13:15:00
7:35 AM,13.3,11.1,91,30.26,10.0,Calm,Calm,-,N/A,,Clear,0,2013-11-19 13:35:00
7:55 AM,15.6,13.5,91,30.26,10.0,Calm,Calm,-,N/A,,Clear,0,2013-11-19 13:55:00
8:15 AM,18.1,15.8,91,30.26,10.0,Calm,Calm,-,N/A,,Clear,0,2013-11-19 14:15:00
8:35 AM,21.6,18.5,88,30.26,10.0,Calm,Calm,-,N/A,,Clear,0,2013-11-19 14:35:00
8:55 AM,23.5,19.2,84,30.26,10.0,Calm,Calm,-,N/A,,Clear,0,2013-11-19 14:55:00
9:15 AM,25.3,19.9,80,30.26,10.0,SE,3.5,-,N/A,,Clear,140,2013-11-19 15:15:00
9:35 AM,26.4,19.4,75,30.26,10.0,SE,5.8,-,N/A,,Clear,140,2013-11-19 15:35:00
9:55 AM,27.5,19.6,72,30.26,10.0,SSE,5.8,-,N/A,,Clear,160,2013-11-19 15:55:00
10:15 AM,28.4,19.0,68,30.25,10.0,SSE,4.6,-,N/A,,Clear,160,2013-11-19 16:15:00
10:35 AM,29.1,18.7,65,30.25,10.0,SE,5.8,-,N/A,,Clear,140,2013-11-19 16:35:00
10:55 AM,30.2,19.0,63,30.24,10.0,South,8.1,-,N/A,,Clear,180,2013-11-19 16:55:00
11:15 AM,31.5,19.2,61,30.23,10.0,SSE,5.8,-,N/A,,Clear,150,2013-11-19 17:15:00
11:35 AM,32.0,18.3,57,30.22,10.0,SSE,8.1,-,N/A,,Clear,150,2013-11-19 17:35:00
11:55 AM,32.5,17.1,53,30.21,10.0,SSE,8.1,-,N/A,,Clear,160,2013-11-19 17:55:00
12:15 PM,33.1,17.6,53,30.21,10.0,SSE,4.6,-,N/A,,Clear,160,2013-11-19 18:15:00
12:35 PM,34.3,18.1,52,30.21,10.0,SSE,8.1,-,N/A,,Clear,160,2013-11-19 18:35:00
12:55 PM,34.7,17.6,50,30.20,10.0,South,10.4,-,N/A,,Clear,180,2013-11-19 18:55:00
1:15 PM,34.9,17.4,49,30.20,10.0,South,8.1,-,N/A,,Clear,170,2013-11-19 19:15:00
1:35 PM,35.1,17.6,49,30.19,10.0,SSE,8.1,16.1,N/A,,Clear,160,2013-11-19 19:35:00
1:55 PM,35.4,17.6,48,30.18,10.0,South,9.2,-,N/A,,Clear,180,2013-11-19 19:55:00
2:15 PM,35.6,16.9,47,30.17,10.0,SSE,9.2,-,N/A,,Clear,160,2013-11-19 20:15:00
2:35 PM,35.6,16.7,46,30.17,10.0,South,6.9,16.1,N/A,,Clear,180,2013-11-19 20:35:00
2:55 PM,34.9,17.2,49,30.16,10.0,South,9.2,16.1,N/A,,Scattered Clouds,170,2013-11-19 20:55:00
3:15 PM,34.7,17.4,49,30.16,10.0,SSE,8.1,-,N/A,,Scattered Clouds,160,2013-11-19 21:15:00
3:35 PM,34.2,17.6,51,30.15,10.0,SSE,4.6,-,N/A,,Clear,150,2013-11-19 21:35:00
3:55 PM,33.8,17.8,52,30.15,10.0,SSE,6.9,16.1,N/A,,Clear,160,2013-11-19 21:55:00
4:15 PM,33.1,17.6,53,30.14,10.0,SSE,8.1,-,N/A,,Clear,150,2013-11-19 22:15:00
4:35 PM,32.5,17.1,53,30.14,10.0,South,9.2,-,N/A,,Clear,170,2013-11-19 22:35:00
4:55 PM,32.0,17.4,55,30.13,10.0,SSE,5.8,9.2,N/A,,Clear,160,2013-11-19 22:55:00
5:15 PM,31.8,17.8,56,30.13,10.0,SSE,8.1,-,N/A,,Clear,160,2013-11-19 23:15:00
5:35 PM,31.5,18.3,58,30.14,10.0,South,9.2,-,N/A,,Clear,170,2013-11-19 23:35:00
5:55 PM,31.5,18.5,59,30.14,10.0,SSE,10.4,16.1,N/A,,Scattered Clouds,160,2013-11-19 23:55:00
6:15 PM,31.6,18.5,58,30.13,10.0,SSE,9.2,18.4,N/A,,Overcast,160,2013-11-20 00:15:00
6:35 PM,31.6,18.3,58,30.12,10.0,SSE,11.5,19.6,N/A,,Overcast,150,2013-11-20 00:35:00
6:55 PM,31.5,18.5,59,30.11,10.0,SSE,12.7,18.4,N/A,,Overcast,160,2013-11-20 00:55:00
7:15 PM,31.6,18.5,58,30.11,10.0,SSE,13.8,19.6,N/A,,Overcast,160,2013-11-20 01:15:00
7:35 PM,31.6,18.3,58,30.10,10.0,SSE,11.5,20.7,N/A,,Overcast,160,2013-11-20 01:35:00
7:55 PM,31.8,18.7,58,30.10,10.0,South,10.4,18.4,N/A,,Overcast,170,2013-11-20 01:55:00
8:15 PM,31.8,19.4,60,30.10,10.0,South,12.7,21.9,N/A,,Overcast,170,2013-11-20 02:15:00
8:35 PM,31.8,20.1,62,30.09,10.0,South,11.5,16.1,N/A,,Overcast,170,2013-11-20 02:35:00
8:55 PM,31.8,20.3,62,30.09,10.0,South,10.4,16.1,N/A,,Overcast,170,2013-11-20 02:55:00
9:15 PM,32.0,20.7,63,30.08,10.0,SSE,9.2,18.4,N/A,,Scattered Clouds,160,2013-11-20 03:15:00
9:35 PM,32.0,21.2,64,30.08,10.0,SSE,11.5,18.4,N/A,,Mostly Cloudy,160,2013-11-20 03:35:00
9:55 PM,32.0,21.6,65,30.09,10.0,South,12.7,18.4,N/A,,Mostly Cloudy,170,2013-11-20 03:55:00
10:15 PM,32.0,22.1,67,30.08,10.0,South,9.2,17.3,N/A,,Scattered Clouds,170,2013-11-20 04:15:00
10:35 PM,32.0,22.5,68,30.08,10.0,South,13.8,21.9,N/A,,Mostly Cloudy,180,2013-11-20 04:35:00
10:55 PM,32.0,22.6,68,30.08,10.0,South,15.0,21.9,N/A,,Overcast,180,2013-11-20 04:55:00
11:15 PM,32.5,22.8,67,30.08,10.0,South,12.7,18.4,N/A,,Overcast,180,2013-11-20 05:15:00
11:35 PM,32.5,22.6,67,30.08,10.0,South,12.7,18.4,N/A,,Overcast,180,2013-11-20 05:35:00
11:55 PM,32.9,22.6,66,30.08,10.0,South,9.2,19.6,N/A,,Overcast,180,2013-11-20 05:55:00